Weather History for Twin Falls, ID

Change the Weather History Date:

Sunday, January 19, 2014

  Actual Average Record
Temperature  
Mean Temperature 33 °F -  
Max Temperature 49 °F 38 °F 52 °F (1981)
Min Temperature 16 °F 22 °F -8 °F (1984)
Degree Days  
Heating Degree Days 32 35  
Month to date heating degree days 554 679  
Since 1 July heating degree days 3100 3246  
Cooling Degree Days 0 0  
Month to date cooling degree days 0 0  
Year to date cooling degree days 0 0  
Moisture  
Dew Point 19 °F    
Average Humidity 61    
Maximum Humidity 84    
Minimum Humidity 38    
Precipitation  
Precipitation 0.00 in 0.02 in 0.57 in (2012)
Month to date precipitation 0.28 0.69  
Year to date precipitation 0.28 0.69  
Sea Level Pressure  
Sea Level Pressure 30.26 in    
Wind  
Wind Speed 6 mph (NE)    
Max Wind Speed 13 mph    
Max Gust Speed 14 mph    
Visibility 9 miles    
Events Fog    
T = Trace of Precipitation, MM = Missing Value Source: NWS Daily Summary

Daily Weather History Graph

Daily Weather History Graph

Search for Another Location

Airport:

Trip Planner

Search our weather history database for the weather conditions in past years. The results will help you decide how hot, cold, wet, or windy it might be!

Date:

Astronomy

Jan. 19, 2014 Rise Set
Actual Time 8:02 AM MST 5:35 PM MST
Civil Twilight 7:31 AM MST 6:06 PM MST
Nautical Twilight 6:57 AM MST 6:40 PM MST
Astronomical Twilight 6:23 AM MST 7:14 PM MST
Moon 9:22 PM MST (1/19) 9:29 AM MST (1/19)
Length of Visible Light 10h 34m
Length of Day
9h 32m
Waning Gibbous, 89% of the Moon is Illuminated
Jan 19
Waning Gibbous
Jan 23
Last Quarter
Jan 30
New
Feb 6
First Quarter
Feb 14
Full

Hourly Weather History & Observations

Time (MST) Temp. Windchill Dew Point Humidity Pressure Visibility Wind Dir Wind Speed Gust Speed Precip Events Conditions
12:53 AM 24.1 °F - 17.1 °F 75% 30.30 in 10.0 mi Calm Calm - N/A   Clear
1:53 AM 25.0 °F 16.3 °F 19.0 °F 78% 30.27 in 10.0 mi South 8.1 mph - N/A   Clear
2:53 AM 25.0 °F 20.7 °F 18.0 °F 75% 30.27 in 10.0 mi North 3.5 mph - N/A   Clear
3:53 AM 19.9 °F - 15.1 °F 81% 30.29 in 10.0 mi Calm Calm - N/A   Clear
4:53 AM 21.9 °F 11.0 °F 16.0 °F 78% 30.25 in 10.0 mi SE 10.4 mph - N/A   Clear
5:53 AM 21.9 °F 15.7 °F 16.0 °F 78% 30.28 in 10.0 mi SE 4.6 mph - N/A   Clear
6:53 AM 19.9 °F 11.1 °F 14.0 °F 78% 30.30 in 10.0 mi SE 6.9 mph - N/A   Clear
7:53 AM 24.1 °F 19.7 °F 16.0 °F 71% 30.32 in 10.0 mi NNE 3.5 mph - N/A   Clear
8:53 AM 21.9 °F 15.7 °F 16.0 °F 78% 30.32 in 8.0 mi ESE 4.6 mph - N/A   Clear
9:53 AM 30.9 °F 26.2 °F 21.9 °F 69% 30.31 in 10.0 mi NE 4.6 mph - N/A   Clear
10:53 AM 34.0 °F 29.8 °F 23.0 °F 64% 30.31 in 10.0 mi East 4.6 mph - N/A   Clear
11:53 AM 37.9 °F 33.5 °F 24.1 °F 57% 30.28 in 10.0 mi NE 5.8 mph - N/A   Clear
12:53 PM 42.1 °F 39.2 °F 21.9 °F 45% 30.25 in 10.0 mi ENE 4.6 mph - N/A   Clear
1:53 PM 45.0 °F 41.2 °F 23.0 °F 42% 30.22 in 10.0 mi NE 6.9 mph - N/A   Clear
2:53 PM 46.0 °F 42.5 °F 23.0 °F 40% 30.18 in 10.0 mi ENE 6.9 mph - N/A   Clear
3:53 PM 48.0 °F - 24.1 °F 39% 30.18 in 10.0 mi ENE 5.8 mph - N/A   Clear
4:53 PM 46.0 °F 43.1 °F 23.0 °F 40% 30.18 in 10.0 mi North 5.8 mph - N/A   Clear
5:53 PM 32.0 °F 27.5 °F 19.0 °F 59% 30.21 in 10.0 mi SE 4.6 mph - N/A   Clear
6:53 PM 27.0 °F - 19.0 °F 72% 30.25 in 10.0 mi Calm Calm - N/A   Clear
7:53 PM 30.9 °F 24.3 °F 21.0 °F 67% 30.26 in 10.0 mi NW 6.9 mph - N/A   Clear
8:53 PM 26.1 °F 16.2 °F 19.9 °F 78% 30.30 in 9.0 mi SW 10.4 mph - N/A   Clear
9:53 PM 25.0 °F 16.3 °F 19.0 °F 78% 30.27 in 9.0 mi SSE 8.1 mph - N/A   Clear
10:53 PM 28.0 °F 18.1 °F 19.9 °F 72% 30.27 in 10.0 mi NNW 11.5 mph - N/A   Clear
11:23 PM 23.0 °F 12.4 °F 19.0 °F 85% 30.26 in 1.5 mi NW 10.4 mph - N/A   Scattered Clouds
11:26 PM 21.9 °F 12.5 °F 19.0 °F 89% 30.26 in 0.2 mi NW 8.1 mph - N/A Fog Light Freezing Fog
11:53 PM 21.9 °F 17.2 °F 19.9 °F 92% 30.30 in 0.2 mi WNW 3.5 mph - N/A Fog Light Freezing Fog